H1 CPF 2 NER 2023 6 4 9 155 01 glonass143 H2 2007501 9143 46805 2023 6 4 0 0 0 2023 6 7 23 45 0 900 1 1 0 0 0 1 H9 10 0 60099 0.00000 0 6550683.578 -13356581.864 -20713477.064 10 0 60099 900.00000 0 8758763.286 -14442299.588 -19109243.351 10 0 60099 1800.00000 0 10687917.619 -15581069.231 -17133696.487 10 0 60099 2700.00000 0 12305658.222 -16716891.649 -14825286.049 10 0 60099 3600.00000 0 13591813.221 -17790360.769 -12228913.694 10 0 60099 4500.00000 0 14539109.097 -18741220.243 -9395056.788 10 0 60099 5400.00000 0 15153217.179 -19510973.222 -6378784.526 10 0 60099 6300.00000 0 15452264.536 -20045435.238 -3238685.761 10 0 60099 7200.00000 0 15465831.465 -20297122.606 -35729.701 10 0 60099 8100.00000 0 15233479.286 -20227375.701 3167918.189 10 0 60099 9000.00000 0 14802871.751 -19808127.679 6310101.891 10 0 60099 9900.00000 0 14227570.290 -19023244.142 9329878.528 10 0 60099 10800.00000 0 13564596.790 -17869377.353 12168696.727 10 0 60099 11700.00000 0 12871867.076 -16356298.913 14771526.974 10 0 60099 12600.00000 0 12205603.422 -14506696.651 17087922.371 10 0 60099 13500.00000 0 11617834.930 -12355443.736 19072989.818 10 0 60099 14400.00000 0 11154090.724 -9948369.832 20688253.537 10 0 60099 15300.00000 0 10851382.557 -7340584.669 21902394.937 10 0 60099 16200.00000 0 10736561.275 -4594422.723 22691855.312 10 0 60099 17100.00000 0 10825115.876 -1777093.129 23041290.332 10 0 60099 18000.00000 0 11120465.561 1041868.890 22943867.983 10 0 60099 18900.00000 0 11613774.679 3793244.788 22401404.316 10 0 60099 19800.00000 0 12284298.859 6410761.419 21424334.251 10 0 60099 20700.00000 0 13100248.561 8833597.867 20031517.466 10 0 60099 21600.00000 0 14020134.760 11008667.393 18249882.376 10 0 60099 22500.00000 0 14994541.294 12892580.545 16113914.099 10 0 60099 23400.00000 0 15968250.320 14453208.255 13664995.256 10 0 60099 24300.00000 0 16882632.305 15670780.232 10950611.345 10 0 60099 25200.00000 0 17678200.390 16538472.962 8023435.183 10 0 60099 26100.00000 0 18297221.601 17062462.852 4940307.582 10 0 60099 27000.00000 0 18686274.476 17261442.493 1761133.709 10 0 60099 27900.00000 0 18798644.468 17165620.567 -1452283.363 10 0 60099 28800.00000 0 18596454.964 16815247.890 -4637448.858 10 0 60099 29700.00000 0 18052442.639 16258732.299 -7732398.120 10 0 60099 30600.00000 0 17151300.799 15550422.618 -10676909.477 10 0 60099 31500.00000 0 15890532.562 14748156.177 -13413683.567 10 0 60099 32400.00000 0 14280776.596 13910674.410 -15889465.311 10 0 60099 33300.00000 0 12345590.416 13095016.638 -18056085.992 10 0 60099 34200.00000 0 10120699.379 12354002.968 -19871404.541 10 0 60099 35100.00000 0 7652742.057 11733913.255 -21300129.512 10 0 60099 36000.00000 0 4997563.894 11272460.525 -22314505.686 10 0 60099 36900.00000 0 2218130.057 10997144.556 -22894852.139 10 0 60099 37800.00000 0 -617855.804 10924055.002 -23029941.688 10 0 60099 38700.00000 0 -3440527.965 11057174.251 -22717214.753 10 0 60099 39600.00000 0 -6180523.302 11388209.024 -21962823.957 10 0 60099 40500.00000 0 -8771623.815 11896957.333 -20781509.026 10 0 60099 41400.00000 0 -11153267.683 12552194.841 -19196304.749 10 0 60099 42300.00000 0 -13272825.149 13313042.796 -17238087.958 10 0 60099 43200.00000 0 -15087545.395 14130759.452 -14944972.512 10 0 60099 44100.00000 0 -16566094.486 14950879.094 -12361564.151 10 0 60099 45000.00000 0 -17689621.462 15715608.138 -9538089.865 10 0 60099 45900.00000 0 -18452309.515 16366376.969 -6529418.816 10 0 60099 46800.00000 0 -18861390.722 16846439.670 -3393994.012 10 0 60099 47700.00000 0 -18936625.287 17103411.739 -192695.756 10 0 60099 48600.00000 0 -18709268.657 17091638.611 3012340.831 10 0 60099 49500.00000 0 -18220571.326 16774294.970 6158931.032 10 0 60099 50400.00000 0 -17519875.582 16125126.217 9186044.915 10 0 60099 51300.00000 0 -16662390.212 15129758.615 12034987.506 10 0 60099 52200.00000 0 -15706737.400 13786522.744 14650532.033 10 0 60099 53100.00000 0 -14712375.337 12106755.297 16981984.584 10 0 60099 54000.00000 0 -13737004.884 10114566.022 18984160.112 10 0 60099 54900.00000 0 -12834069.022 7846078.762 20618251.605 10 0 60099 55800.00000 0 -12050449.625 5348177.327 21852576.312 10 0 60099 56700.00000 0 -11424457.682 2676807.249 22663185.390 10 0 60099 57600.00000 0 -10984200.715 -105097.321 23034325.821 10 0 60099 58500.00000 0 -10746395.422 -2929976.864 22958746.091 10 0 60099 59400.00000 0 -10715675.094 -5728203.371 22437839.907 10 0 60099 60300.00000 0 -10884420.875 -8430726.239 21481625.020 10 0 60099 61200.00000 0 -11233124.209 -10971698.740 20108557.060 10 0 60099 62100.00000 0 -11731265.794 -13290977.197 18345181.275 10 0 60099 63000.00000 0 -12338674.789 -15336389.967 16225627.878 10 0 60099 63900.00000 0 -13007311.857 -17065682.410 13790959.783 10 0 60099 64800.00000 0 -13683401.634 -18448057.207 11088384.281 10 0 60099 65700.00000 0 -14309825.255 -19465245.879 8170343.030 10 0 60099 66600.00000 0 -14828672.160 -20112066.698 5093497.403 10 0 60099 67500.00000 0 -15183843.272 -20396445.586 1917628.537 10 0 60099 68400.00000 0 -15323594.999 -20338899.166 -1295526.528 10 0 60099 69300.00000 0 -15202915.580 -19971501.800 -4483479.615 10 0 60099 70200.00000 0 -14785632.133 -19336380.465 -7584212.990 10 0 60099 71100.00000 0 -14046157.911 -18483801.385 -10537393.200 10 0 60099 72000.00000 0 -12970804.468 -17469929.809 -13285552.559 10 0 60099 72900.00000 0 -11558601.868 -16354358.256 -15775214.435 10 0 60099 73800.00000 0 -9821590.919 -15197508.328 -17957939.686 10 0 60099 74700.00000 0 -7784573.932 -14058016.498 -19791273.318 10 0 60099 75600.00000 0 -5484333.377 -12990214.716 -21239572.644 10 0 60099 76500.00000 0 -2968350.320 -12041812.437 -22274700.842 10 0 60099 77400.00000 0 -293075.589 -11251877.848 -22876572.542 10 0 60099 78300.00000 0 2478174.649 -10649203.187 -23033541.221 10 0 60099 79200.00000 0 5277611.626 -10251122.525 -22742621.305 10 0 60099 80100.00000 0 8035555.707 -10062831.193 -22009541.096 10 0 60099 81000.00000 0 10683100.092 -10077234.695 -20848625.953 10 0 60099 81900.00000 0 13154746.157 -10275332.639 -19282514.311 10 0 60099 82800.00000 0 15390901.314 -10627120.659 -17341712.341 10 0 60099 83700.00000 0 17340136.130 -11092971.464 -15063996.095 10 0 60099 84600.00000 0 18961107.556 -11625436.078 -12493672.885 10 0 60099 85500.00000 0 20224069.031 -12171388.607 -9680716.387 10 0 60100 0.00000 0 21111905.539 -12674423.417 -6679792.726 10 0 60100 900.00000 0 21620652.025 -13077403.334 -3549194.964 10 0 60100 1800.00000 0 21759473.723 -13325050.201 -349711.027 10 0 60100 2700.00000 0 21550112.166 -13366469.021 2856558.076 10 0 60100 3600.00000 0 21025820.196 -13157498.179 6007402.603 10 0 60100 4500.00000 0 20229832.377 -12662786.664 9041709.012 10 0 60100 5400.00000 0 19213435.988 -11857510.414 11900641.845 10 0 60100 6300.00000 0 18033724.289 -10728655.243 14528779.776 10 0 60100 7200.00000 0 16751126.846 -9275811.994 16875184.135 10 0 60100 8100.00000 0 15426820.689 -7511449.988 18894379.729 10 0 60100 9000.00000 0 14120130.665 -5460656.506 20547229.662 10 0 60100 9900.00000 0 12886027.527 -3160352.221 21801687.957 10 0 60100 10800.00000 0 11772827.967 -658014.078 22633416.179 10 0 60100 11700.00000 0 10820192.138 1990042.610 23026252.795 10 0 60100 12600.00000 0 10057501.834 4720752.928 22972526.640 10 0 60100 13500.00000 0 9502686.611 7466676.847 22473208.614 10 0 60100 14400.00000 0 9161546.584 10158562.424 21537898.545 10 0 60100 15300.00000 0 9027600.120 12727992.765 20184647.008 10 0 60100 16200.00000 0 9082462.866 15110008.084 18439614.827 10 0 60100 17100.00000 0 9296742.456 17245594.892 16336575.849 10 0 60100 18000.00000 0 9631411.712 19083939.405 13916271.610 10 0 60100 18900.00000 0 10039602.933 20584351.643 11225629.320 10 0 60100 19800.00000 0 10468748.011 21717780.024 8316857.413 10 0 60100 20700.00000 0 10862974.205 22467852.993 5246435.576 10 0 60100 21600.00000 0 11165654.235 22831403.853 2074018.508 10 0 60100 22500.00000 0 11322002.404 22818456.559 -1138725.306 10 0 60100 23400.00000 0 11281606.144 22451672.935 -4329316.863 10 0 60100 24300.00000 0 11000784.752 21765284.589 -7435687.909 10 0 60100 25200.00000 0 10444674.185 20803554.731 -10397395.685 10 0 60100 26100.00000 0 9588948.280 19618835.132 -13156806.515 10 0 60100 27000.00000 0 8421102.129 18269300.683 -15660224.356 10 0 60100 27900.00000 0 6941241.948 16816457.701 -17858941.606 10 0 60100 28800.00000 0 5162346.761 15322531.629 -19710191.102 10 0 60100 29700.00000 0 3109989.651 13847844.714 -21177980.507 10 0 60100 30600.00000 0 821529.197 12448294.405 -22233792.801 10 0 60100 31500.00000 0 -1655195.863 11173038.657 -22857139.386 10 0 60100 32400.00000 0 -4263614.885 10062485.307 -23035955.400 10 0 60100 33300.00000 0 -6940544.053 9146669.523 -22766829.994 10 0 60100 34200.00000 0 -9618587.681 8444086.779 -22055067.541 10 0 60100 35100.00000 0 -12228722.462 7961029.426 -20914579.043 10 0 60100 36000.00000 0 -14702957.502 7691453.623 -19367606.175 10 0 60100 36900.00000 0 -16976959.749 7617381.024 -17444283.644 10 0 60100 37800.00000 0 -18992536.072 7709817.137 -15182048.533 10 0 60100 38700.00000 0 -20699869.121 7930146.500 -12624908.263 10 0 60100 39600.00000 0 -22059414.461 8231944.850 -9822581.514 10 0 60100 40500.00000 0 -23043380.617 8563130.889 -6829528.978 10 0 60100 41400.00000 0 -23636731.166 8868366.046 -3703892.885 10 0 60100 42300.00000 0 -23837667.979 9091600.253 -506366.203 10 0 60100 43200.00000 0 -23657576.526 9178655.666 2700986.326 10 0 60100 44100.00000 0 -23120436.657 9079738.803 5855932.191 10 0 60100 45000.00000 0 -22261724.640 8751774.701 8897276.611 10 0 60100 45900.00000 0 -21126853.427 8160464.323 11766046.106 10 0 60100 46800.00000 0 -19769217.315 7281978.184 14406627.348 10 0 60100 47700.00000 0 -18247923.434 6104214.544 16767839.485 10 0 60100 48600.00000 0 -16625305.308 4627568.777 18803919.725 10 0 60100 49500.00000 0 -14964322.455 2865180.920 20475403.745 10 0 60100 50400.00000 0 -13325954.446 842650.123 21749884.631 10 0 60100 51300.00000 0 -11766697.726 -1402773.246 22602636.429 10 0 60100 52200.00000 0 -10336269.006 -3823485.553 23017090.910 10 0 60100 53100.00000 0 -9075610.322 -6363265.385 22985158.781 10 0 60100 54000.00000 0 -8015278.254 -8959376.043 22507389.339 10 0 60100 54900.00000 0 -7174283.902 -11544949.322 21592965.356 10 0 60100 55800.00000 0 -6559431.593 -14051553.048 20259532.862 10 0 60100 56700.00000 0 -6165183.656 -16411837.026 18532868.383 10 0 60100 57600.00000 0 -5974056.810 -18562148.460 16446389.132 10 0 60100 58500.00000 0 -5957533.567 -20445008.688 14040514.586 10 0 60100 59400.00000 0 -6077450.453 -22011348.392 11361890.792 10 0 60100 60300.00000 0 -6287804.721 -23222408.065 8462491.490 10 0 60100 61200.00000 0 -6536903.388 -24051224.030 5398612.846 10 0 60100 62100.00000 0 -6769763.651 -24483637.399 2229780.943 10 0 60100 63000.00000 0 -6930662.789 -24518783.211 -982406.788 10 0 60100 63900.00000 0 -6965728.931 -24169038.735 -4175483.316 10 0 60100 64800.00000 0 -6825462.001 -23459432.856 -7287332.953 10 0 60100 65700.00000 0 -6467076.911 -22426541.253 -10257406.955 10 0 60100 66600.00000 0 -5856568.385 -21116914.020 -13027909.168 10 0 60100 67500.00000 0 -4970408.625 -19585102.237 -15544927.754 10 0 60100 68400.00000 0 -3796804.578 -17891367.016 -17759490.248 10 0 60100 69300.00000 0 -2336460.315 -16099167.962 -19628520.778 10 0 60100 70200.00000 0 -602811.130 -14272537.153 -21115680.543 10 0 60100 71100.00000 0 1378281.690 -12473449.331 -22192075.125 10 0 60100 72000.00000 0 3569363.579 -10759298.892 -22836815.019 10 0 60100 72900.00000 0 5922712.825 -9180589.417 -23037418.817 10 0 60100 73800.00000 0 8382105.345 -7778932.169 -22790051.644 10 0 60100 74700.00000 0 10884944.905 -6585436.778 -22099594.646 10 0 60100 75600.00000 0 13364670.355 -5619560.535 -20979544.641 10 0 60100 76500.00000 0 15753339.887 -4888463.312 -19451746.218 10 0 60100 77400.00000 0 17984284.924 -4386893.799 -17545961.773 10 0 60100 78300.00000 0 19994723.365 -4097610.340 -15299288.069 10 0 60100 79200.00000 0 21728223.617 -3992317.209 -12755430.750 10 0 60100 80100.00000 0 23136917.031 -4033075.502 -9963851.107 10 0 60100 81000.00000 0 24183366.909 -4174127.909 -6978801.786 10 0 60100 81900.00000 0 24842016.634 -4364059.271 -3858270.348 10 0 60100 82800.00000 0 25100157.076 -4548200.772 -662851.447 10 0 60100 83700.00000 0 24958373.612 -4671175.454 2545430.232 10 0 60100 84600.00000 0 24430454.916 -4679476.961 5704323.237 10 0 60100 85500.00000 0 23542768.193 -4523972.085 8752555.269 10 0 60101 0.00000 0 22333127.936 -4162221.222 11631018.072 10 0 60101 900.00000 0 20849205.537 -3560518.277 14283909.996 10 0 60101 1800.00000 0 19146548.458 -2695564.286 16659810.526 10 0 60101 2700.00000 0 17286289.875 -1555703.307 18712671.641 10 0 60101 3600.00000 0 15332645.982 -141668.513 20402703.538 10 0 60101 4500.00000 0 13350304.541 1533193.748 21697139.898 10 0 60101 5400.00000 0 11401813.136 3443232.263 22570868.367 10 0 60101 6300.00000 0 9545075.227 5551320.076 23006914.732 10 0 60101 7200.00000 0 7831057.481 7810171.268 22996771.875 10 0 60101 8100.00000 0 6301802.973 10164092.152 22540567.389 10 0 60101 9000.00000 0 4988832.173 12551095.675 21647066.492 10 0 60101 9900.00000 0 3911997.659 14905292.612 20333509.777 10 0 60101 10800.00000 0 3078839.744 17159461.507 18625288.228 10 0 60101 11700.00000 0 2484469.531 19247691.562 16555460.845 10 0 60101 12600.00000 0 2111984.034 21107989.158 14164123.194 10 0 60101 13500.00000 0 1933395.780 22684739.758 11497638.053 10 0 60101 14400.00000 0 1911037.713 23930922.435 8607742.140 10 0 60101 15300.00000 0 1999384.086 24809984.135 5550545.594 10 0 60101 16200.00000 0 2147210.274 25297294.615 2385443.226 10 0 60101 17100.00000 0 2299999.786 25381120.419 -826041.339 10 0 60101 18000.00000 0 2402496.012 25063076.232 -4021455.829 10 0 60101 18900.00000 0 2401289.764 24358034.064 -7138639.865 10 0 60101 19800.00000 0 2247331.907 23293493.611 -10116941.360 10 0 60101 20700.00000 0 1898263.407 21908440.045 -12898404.143 10 0 60101 21600.00000 0 1320462.753 20251737.285 -15428902.835 10 0 60101 22500.00000 0 490722.770 18380124.473 -17659202.131 10 0 60101 23400.00000 0 -602515.408 16355900.220 -19545919.243 10 0 60101 24300.00000 0 -1958424.548 14244392.211 -21052370.478 10 0 60101 25200.00000 0 -3563581.936 12111318.639 -22149285.370 10 0 60101 26100.00000 0 -5392298.214 10020152.269 -22815374.635 10 0 60101 27000.00000 0 -7407471.479 8029597.448 -23037741.187 10 0 60101 27900.00000 0 -9561931.551 6191285.309 -22812126.692 10 0 60101 28800.00000 0 -11800218.722 4547782.959 -22142989.295 10 0 60101 29700.00000 0 -14060723.030 3130998.958 -21043411.468 10 0 60101 30600.00000 0 -16278095.133 1961050.563 -19534840.139 10 0 60101 31500.00000 0 -18385828.311 1045638.705 -17646664.435 10 0 60101 32400.00000 0 -20318904.123 379955.294 -15415639.478 10 0 60101 33300.00000 0 -22016391.466 -52874.978 -12885167.532 10 0 60101 34200.00000 0 -23423890.708 -280838.529 -10104450.669 10 0 60101 35100.00000 0 -24495721.039 -341604.315 -7127531.500 10 0 60101 36000.00000 0 -25196759.956 -280684.400 -4012240.807 10 0 60101 36900.00000 0 -25503858.289 -149262.491 -819072.725 10 0 60101 37800.00000 0 -25406772.080 -1783.107 2389990.419 10 0 60101 38700.00000 0 -24908572.845 106595.954 5552680.631 10 0 60101 39600.00000 0 -24025519.607 122579.707 8607650.572 10 0 60101 40500.00000 0 -22786398.657 -2768.644 11495660.256 10 0 60101 41400.00000 0 -21231359.119 -311718.633 14160721.251 10 0 60101 42300.00000 0 -19410293.383 -837847.386 16551176.455 10 0 60101 43200.00000 0 -17380830.200 -1604383.971 18620695.040 10 0 60101 44100.00000 0 -15206024.110 -2622993.252 20329163.965 10 0 60101 45000.00000 0 -12951837.204 -3893050.854 21643459.489 10 0 60101 45900.00000 0 -10684517.541 -5401440.429 22538084.533 10 0 60101 46800.00000 0 -8467982.501 -7122882.746 22995660.243 10 0 60101 47700.00000 0 -6361315.038 -9020784.132 23007262.682 10 0 60101 48600.00000 0 -4416475.921 -11048570.313 22572598.413 10 0 60101 49500.00000 0 -2676326.119 -13151451.657 21700015.455 10 0 60101 50400.00000 0 -1173040.738 -15268547.778 20406349.020 10 0 60101 51300.00000 0 73020.217 -17335284.467 18716604.310 10 0 60101 52200.00000 0 1053937.786 -19285964.255 16663481.574 10 0 60101 53100.00000 0 1774331.013 -21056404.301 14286751.621 10 0 60101 54000.00000 0 2250921.212 -22586531.987 11632492.809 10 0 60101 54900.00000 0 2511582.113 -23822829.856 8752203.391 10 0 60101 55800.00000 0 2593916.092 -24720527.271 5701805.749 10 0 60101 56700.00000 0 2543416.818 -25245446.373 2540561.438 10 0 60101 57600.00000 0 2411296.305 -25375424.052 -670081.946 10 0 60101 58500.00000 0 2252068.897 -25101249.290 -3867689.322 10 0 60101 59400.00000 0 2120995.207 -24427075.535 -6990058.261 10 0 60101 60300.00000 0 2071495.298 -23370289.984 -9976436.145 10 0 60101 61200.00000 0 2152641.811 -21960844.646 -12768709.754 10 0 60101 62100.00000 0 2406840.473 -20240076.948 -15312543.222 10 0 60101 63000.00000 0 2867797.438 -18259069.309 -17558441.468 10 0 60101 63900.00000 0 3558860.681 -16076616.622 -19462717.770 10 0 60101 64800.00000 0 4491806.664 -13756887.070 -20988346.330 10 0 60101 65700.00000 0 5666124.509 -11366874.515 -22105683.141 10 0 60101 66600.00000 0 7068828.756 -8973749.232 -22793041.273 10 0 60101 67500.00000 0 8674809.317 -6642217.743 -23037109.690 10 0 60101 68400.00000 0 10447704.612 -4432001.795 -22833207.885 10 0 60101 69300.00000 0 12341261.744 -2395541.252 -22185371.846 10 0 60101 70200.00000 0 14301127.123 -576015.958 -21106270.112 10 0 60101 71100.00000 0 16266992.930 994231.981 -19616951.927 10 0 60101 72000.00000 0 18175009.778 2294810.928 -17746432.690 10 0 60101 72900.00000 0 19960364.843 3317882.563 -15531124.957 10 0 60101 73800.00000 0 21559917.753 4068231.344 -13014126.214 10 0 60101 74700.00000 0 22914784.007 4562799.459 -10244377.411 10 0 60101 75600.00000 0 23972757.953 4829708.594 -7275708.748 10 0 60101 76500.00000 0 24690473.984 4906811.335 -4165791.403 10 0 60101 77400.00000 0 25035215.613 4839834.704 -975015.815 10 0 60101 78300.00000 0 24986296.883 4680195.418 2234681.485 10 0 60101 79200.00000 0 24535958.498 4482580.070 5401019.521 10 0 60101 80100.00000 0 23689741.456 4302393.195 8462579.485 10 0 60101 81000.00000 0 22466322.841 4193181.506 11359992.873 10 0 60101 81900.00000 0 20896820.880 4204143.348 14037088.244 10 0 60101 82800.00000 0 19023598.486 4377828.652 16441974.627 10 0 60101 83700.00000 0 16898615.227 4748126.446 18528041.060 10 0 60101 84600.00000 0 14581396.256 5338624.808 20254853.581 10 0 60101 85500.00000 0 12136702.417 6161412.497 21588932.968 10 0 60102 0.00000 0 9631998.050 7216372.901 22504398.912 10 0 60102 900.00000 0 7134819.583 8491001.254 22983469.202 10 0 60102 1800.00000 0 4710156.603 9960752.272 23016803.654 10 0 60102 2700.00000 0 2417948.644 11589906.742 22603687.990 10 0 60102 3600.00000 0 310803.886 13332920.929 21752052.729 10 0 60102 4500.00000 0 -1567967.781 15136204.403 20478326.910 10 0 60102 5400.00000 0 -3185926.238 16940253.452 18807128.690 10 0 60102 6300.00000 0 -4522612.479 18682052.240 16770797.892 10 0 60102 7200.00000 0 -5570154.051 20297642.413 14408778.543 10 0 60102 8100.00000 0 -6333339.766 21724754.320 11766862.279 10 0 60102 9000.00000 0 -6829160.929 22905389.966 8896306.378 10 0 60102 9900.00000 0 -7085838.670 23788249.244 5852842.803 10 0 60102 10800.00000 0 -7141378.667 24330897.089 2695597.095 10 0 60102 11700.00000 0 -7041714.661 24501579.661 -514061.979 10 0 60102 12600.00000 0 -6838519.717 24280612.150 -3713719.345 10 0 60102 13500.00000 0 -6586778.571 23661278.679 -6841133.271 10 0 60102 14400.00000 0 -6342224.703 22650205.357 -9835453.251 10 0 60102 15300.00000 0 -6158751.712 21267189.830 -12638411.480 10 0 60102 16200.00000 0 -6085909.757 19544493.752 -15195463.858 10 0 60102 17100.00000 0 -6166594.187 17525627.401 -17456857.546 10 0 60102 18000.00000 0 -6435025.282 15263677.160 -19378603.655 10 0 60102 18900.00000 0 -6915105.503 12819245.925 -20923335.801 10 0 60102 19800.00000 0 -7619224.535 10258092.642 -22061037.717 10 0 60102 20700.00000 0 -8547563.242 7648569.757 -22769625.862 10 0 60102 21600.00000 0 -9687926.461 5058965.574 -23035376.017 10 0 60102 22500.00000 0 -11016112.152 2554862.192 -22853185.986 10 0 60102 23400.00000 0 -12496801.713 196618.838 -22226669.745 10 0 60102 24300.00000 0 -14084934.369 -1962915.220 -21168081.685 10 0 60102 25200.00000 0 -15727508.140 -3880363.788 -19698072.774 10 0 60102 26100.00000 0 -17365731.974 -5523382.237 -17845283.703 10 0 60102 27000.00000 0 -18937438.913 -6871747.825 -15645783.145 10 0 60102 27900.00000 0 -20379659.142 -7917937.939 -13142362.188 10 0 60102 28800.00000 0 -21631245.043 -8667173.848 -10383698.804 10 0 60102 29700.00000 0 -22635438.152 -9136929.991 -7423408.731 10 0 60102 30600.00000 0 -23342270.361 -9355931.163 -4319001.348 10 0 60102 31500.00000 0 -23710698.592 -9362681.489 -1130761.070 10 0 60102 32400.00000 0 -23710383.440 -9203588.553 2079423.811 10 0 60102 33300.00000 0 -23323037.203 -8930763.063 5249261.890 10 0 60102 34200.00000 0 -22543284.865 -8599587.763 8317265.537 10 0 60102 35100.00000 0 -21379001.985 -8266158.922 11223940.433 10 0 60102 36000.00000 0 -19851115.389 -7984708.726 13912934.838 10 0 60102 36900.00000 0 -17992874.910 -7805117.530 16332126.529 10 0 60102 37800.00000 0 -15848626.444 -7770620.840 18434626.870 10 0 60102 38700.00000 0 -13472137.080 -7915807.599 20179683.176 10 0 60102 39600.00000 0 -10924541.553 -8264993.946 21533462.622 10 0 60102 40500.00000 0 -8271994.689 -8831040.936 22469703.272 10 0 60102 41400.00000 0 -5583126.408 -9614666.128 22970220.317 10 0 60102 42300.00000 0 -2926403.911 -10604278.515 23025258.204 10 0 60102 43200.00000 0 -367509.320 -11776344.506 22633682.114 10 0 60102 44100.00000 0 2033159.611 -13096270.759 21803005.024 10 0 60102 45000.00000 0 4222763.084 -14519768.132 20549249.442 10 0 60102 45900.00000 0 6157973.693 -15994641.017 18896645.844 10 0 60102 46800.00000 0 7806531.316 -17462928.413 16877172.722 10 0 60102 47700.00000 0 9148334.303 -18863308.165 14529946.141 10 0 60102 48600.00000 0 10176021.956 -20133664.373 11900469.565 10 0 60102 49500.00000 0 10895024.361 -21213710.717 9039757.569 10 0 60102 50400.00000 0 11323077.761 -22047559.498 6003349.720 10 0 60102 51300.00000 0 11489226.211 -22586128.006 2850233.341 10 0 60102 52200.00000 0 11432351.935 -22789280.187 -358304.019 10 0 60102 53100.00000 0 11199296.869 -22627612.368 -3559869.807 10 0 60102 54000.00000 0 10842655.426 -22083806.582 -6692185.588 10 0 60102 54900.00000 0 10418332.600 -21153493.206 -9694305.613 10 0 60102 55800.00000 0 9982971.703 -19845585.327 -12507810.154 10 0 60102 56700.00000 0 9591361.596 -18182069.703 -15077949.510 10 0 60102 57600.00000 0 9293934.214 -16197262.211 -17354715.646 10 0 60102 58500.00000 0 9134459.215 -13936558.431 -19293819.935 10 0 60102 59400.00000 0 9148034.111 -11454731.320 -20857557.642 10 0 60102 60300.00000 0 9359455.487 -8813846.996 -22015542.208 10 0 60102 61200.00000 0 9782040.633 -6080885.638 -22745295.128 10 0 60102 62100.00000 0 10416949.601 -3325166.672 -23032680.294 10 0 60102 63000.00000 0 11253036.532 -615685.404 -22872174.734 10 0 60102 63900.00000 0 12267236.565 1981528.252 -22266970.961 10 0 60102 64800.00000 0 13425472.118 4405919.509 -21228909.396 10 0 60102 65700.00000 0 14684040.392 6604683.219 -19778242.552 10 0 60102 66600.00000 0 15991423.712 8534709.385 -17943235.881 10 0 60102 67500.00000 0 17290446.568 10164119.909 -15759613.268 10 0 60102 68400.00000 0 18520688.611 11473333.922 -13269858.101 10 0 60102 69300.00000 0 19621052.103 12455618.832 -10522383.671 10 0 60102 70200.00000 0 20532375.791 13117105.792 -7570589.134 10 0 60102 71100.00000 0 21199985.254 13476270.746 -4471819.565 10 0 60102 72000.00000 0 21576072.368 13562904.541 -1286250.512 10 0 60102 72900.00000 0 21621803.820 13416617.047 1924281.066 10 0 60102 73800.00000 0 21309069.940 13084939.604 5097476.588 10 0 60102 74700.00000 0 20621800.349 12621106.904 8171782.898 10 0 60102 75600.00000 0 19556791.051 12081612.620 11087583.114 10 0 60102 76500.00000 0 18124008.154 11523642.380 13788348.307 10 0 60102 77400.00000 0 16346355.231 11002492.531 16221727.918 10 0 60102 78300.00000 0 14258913.672 10569083.460 18340558.290 10 0 60102 79200.00000 0 11907687.191 10267672.021 20103770.375 10 0 60102 80100.00000 0 9347902.089 10133859.084 21477179.756 10 0 60102 81000.00000 0 6641933.126 10192975.717 22434144.444 10 0 60102 81900.00000 0 3856940.077 10458915.759 22956078.395 10 0 60102 82800.00000 0 1062311.944 10933463.811 23032811.315 10 0 60102 83700.00000 0 -1672976.459 11606147.285 22662788.054 10 0 60102 84600.00000 0 -4282987.212 12454619.303 21853103.708 10 0 60102 85500.00000 0 -6707313.672 13445557.296 20619373.372 99